Location: El Carrer d�Abaix
(41.5797°N, 2.1791°E)
Time: 22:06:21
(UTC+00:00)

Cosmos 2082 Rocket - Visible Passes

Search period start: 01 October 2020 00:00
Search period end: 11 October 2020 00:00
Orbit: 835 x 852 km, 71.0° (Epoch: 01 October)

Date Brightness Start Highest point End Pass type
(mag) Time Alt. Az. Time Alt. Az. Time Alt. Az.
01 Oct 2.1 19:18:12 10° NNW 19:23:50 72° ENE 19:25:49 41° SE visible
01 Oct 4.6 21:04:03 10° WNW 21:07:13 15° W 21:07:42 15° WSW visible
02 Oct 2.1 19:03:39 10° NNW 19:09:17 69° ENE 19:12:17 28° SE visible
02 Oct 4.5 20:49:22 10° WNW 20:52:42 16° W 20:54:11 15° WSW visible
03 Oct 2.1 18:49:07 10° NNW 18:54:44 67° ENE 18:58:55 18° SE visible
03 Oct 4.6 20:34:42 10° WNW 20:38:11 17° W 20:40:50 13° SW visible
04 Oct 2.2 18:34:34 10° NNW 18:40:11 64° ENE 18:45:47 10° SE visible
04 Oct 4.6 20:20:02 10° WNW 20:23:40 18° W 20:27:19 10° SW visible
05 Oct 2.2 18:20:03 10° NNW 18:25:38 61° ENE 18:31:13 10° SE visible
05 Oct 4.6 20:05:23 10° WNW 20:09:09 19° W 20:12:56 10° SW visible
06 Oct 2.3 18:05:31 10° NNW 18:11:05 58° ENE 18:16:38 10° SE visible
06 Oct 4.6 19:50:44 10° NW 19:54:38 20° W 19:58:33 10° SW visible
07 Oct 2.3 17:50:59 10° NNW 17:56:32 56° ENE 18:02:04 10° SE visible
07 Oct 4.6 19:36:06 10° NW 19:40:08 20° W 19:44:10 10° SW visible
08 Oct 4.6 19:21:28 10° NW 19:25:37 21° W 19:29:46 10° SSW visible
09 Oct 4.6 19:06:51 10° NW 19:11:06 22° W 19:15:21 10° SSW visible
10 Oct 4.6 18:52:13 10° NW 18:56:36 23° WSW 19:00:57 10° SSW visible
